Location: Ku?niki
(51.4449°N, 17.8974°E)
Time: 11:42:21
(UTC+00:00)

Cosmos 1269 Rocket - Pass Details

Date: 18 September 2020
Orbit: 772 x 779 km, 74.1° (Epoch: 31 October)

Event Time Altitude Azimuth Distance (km) Brightness Sun altitude
Rises 19:32:49 0° 334° (NNW) 3,274 8.3 -23.7°
Reaches altitude 10° 19:35:12 10° 333° (NNW) 2,343 7.4 -24.0°
Maximum altitude 19:40:32 80° 248° (WSW) 799 4.0 -24.7°
Enters shadow 19:41:23 63° 179° (S) 873 4.0 -24.8°
